[[{"header":{"parameterUnit":"m.s-1","parameterCategory":1,"la1":30.2991,"la2":30.254,"lo1":-89.0895,"lo2":-89.0444,"dy":0.0017,"dx":0.0017,"nx":28,"ny":28,"refTime":"2025-03-10T21:00:00:Z","depth":0,"parameterNumber":2,"parameterNumberName":"U-component_of_WINDS"},"data":[0,0,0,0,0,0,0,0,0,0,0,0,0,0,0,0,0,0,0,0,0,0,0,0,0,0,0,0,0,0,0,0,0,0,0,0,0,0,0,0,0,0,0,0,0,0,0,0,0,0,0,0,0,0,0,0,0,0,1.3002,1.3002,0,1.3016,1.3016,1.3016,1.2994,1.2993,1.2992,1.2991,1.301,1.3011,1.3012,0,0,0,0,0,0,0,0,0,0,0,0,0,1.296,1.2961,1.3002,1.3002,1.3002,1.3016,1.3016,1.3016,1.2994,1.2993,1.2992,1.2991,1.3009,1.3011,1.3012,0,0,0,0,0,0,0,0,0,0,0,0,0,1.2977,1.2961,1.3002,1.2993,1.2992,1.3016,1.3016,1.3017,1.2994,1.2993,1.2992,1.2991,1.3009,1.3011,1.3013,1.3048,0,0,1.3018,1.3019,0,0,0,0,0,0,0,0,1.2976,1.2978,1.2994,1.2993,1.2992,1.3002,1.3008,1.3027,1.2994,1.2993,1.2991,1.299,1.3008,1.301,1.3016,1.3049,1.3049,1.3018,1.302,1.302,1.3021,0,0,0,0,0,0,0,1.2975,1.2978,1.3008,1.2994,1.2993,1.2989,1.299,1.3012,1.3008,1.2993,1.2992,1.2993,1.3008,1.3014,1.3016,1.305,1.3018,1.302,1.3021,1.3022,1.3115,1.3117,0,0,0,0,0,0,1.2974,1.2977,1.3007,1.3008,1.2981,1.2991,1.2992,1.3,1.3007,1.3007,1.2994,1.2992,1.3011,1.3014,1.3016,1.306,1.302,1.3022,1.3023,1.3114,1.3116,1.3117,0,0,0,0,0,0,1.2973,1.2977,1.3007,1.2992,1.2995,1.2993,1.3002,1.3001,1.3007,1.3008,1.3008,1.3001,1.301,1.3014,1.3041,1.306,1.3023,1.3025,1.3112,1.3114,1.3116,1.3146,0,0,0,0,0,0,1.2972,1.2977,1.2989,1.2992,1.2996,1.3029,1.3003,1.3002,1.301,1.3007,1.3014,1.3014,1.301,1.3038,1.3042,1.3062,1.3026,1.3111,1.3113,1.3116,1.3144,1.3149,1.3154,0,0,0,0,0,1.2971,1.2997,1.299,1.2994,1.3011,1.303,1.3032,1.3026,1.3011,1.3025,1.3026,1.3014,1.3057,1.3041,1.3046,1.3066,1.3109,1.3113,1.3116,1.3141,1.3148,1.3154,0,0,0,0,0,0,1.2997,1.2997,1.2989,1.3017,1.3024,1.3026,1.3042,1.3033,1.3045,1.3042,1.3034,1.3036,1.3065,1.3068,1.305,1.3102,1.3081,1.3085,1.3099,1.3105,1.3111,1.311,1.3028,0,0,0,0,0,1.3006,1.302,1.302,1.3045,1.3048,1.3045,1.3053,1.3047,1.3054,1.3057,1.306,1.3069,1.3084,1.3095,1.3109,1.3144,1.3146,1.316,1.3166,1.317,1.3174,1.3195,1.3202,1.3127,1.3127,1.3127,0,0,1.3025,1.3027,1.3036,1.305,1.3055,1.3071,1.3047,1.3065,1.3078,1.306,1.3086,1.3088,1.3098,1.3129,1.3143,1.3133,1.3195,1.3174,1.3177,1.3179,1.3199,1.3206,1.3213,1.3129,1.3129,1.3129,0,0,1.3068,1.307,1.3092,1.3097,1.3103,1.3101,1.3106,1.3111,1.3111,1.3136,1.3124,1.314,1.3166,1.3174,1.3182,1.3229,1.322,1.3234,1.3262,1.3282,1.3288,1.3294,1.3313,1.332,1.3238,1.3238,1.3238,0,1.3092,1.3114,1.3105,1.3124,1.3131,1.3115,1.3138,1.3144,1.3156,1.3162,1.315,1.3184,1.3189,1.3223,1.3235,1.324,1.3248,1.3234,1.3288,1.3293,1.3298,1.3316,1.3323,1.324,1.324,1.324,1.324,0,1.3143,1.3159,1.3176,1.3187,1.3197,1.3218,1.3213,1.3224,1.3218,1.3218,1.3245,1.325,1.3267,1.3274,1.3268,1.3308,1.3302,1.3289,1.3268,1.3307,1.3324,1.3331,1.3243,1.3242,1.3242,1.3241,0,0,1.3204,1.3209,1.3216,1.3222,1.3228,1.3241,1.3263,1.3277,1.3288,1.3297,1.3316,1.334,1.3328,1.3337,1.3332,1.335,1.339,1.3335,1.3335,1.3347,1.3438,1.3448,1.3457,1.3384,1.3385,1.3386,1.3438,0,1.3249,1.3284,1.3276,1.3312,1.3328,1.3313,1.3332,1.334,1.334,1.3356,1.3357,1.3374,1.3357,1.3362,1.3379,1.3382,1.3409,1.3378,1.3404,1.3405,1.3404,1.3465,1.3476,1.3525,1.3444,1.3445,1.3446,0,1.3305,1.3315,1.3352,1.3358,1.3364,1.3381,1.3395,1.3409,1.3418,1.3417,1.3427,1.342,1.3444,1.3421,1.3455,1.3435,1.3445,1.3448,1.345,1.3454,1.3429,1.3473,1.354,1.3548,1.3456,1.3455,1.3454,0,1.3348,1.3371,1.3397,1.3402,1.3408,1.3421,1.3425,1.3432,1.3442,1.3455,1.3462,1.3477,1.3487,1.35,1.3498,1.3481,1.3534,1.351,1.3536,1.3536,1.3549,1.3549,1.3621,1.3553,1.3552,1.3552,1.3552,0,1.34,1.3424,1.3416,1.3432,1.3459,1.3451,1.3479,1.3481,1.3488,1.3506,1.3494,1.3512,1.3507,1.3525,1.3523,1.3553,1.3557,1.3559,1.3559,1.3561,1.3561,1.3569,1.3567,1.3554,1.3554,1.3553,1.3553,0,1.3453,1.3449,1.3476,1.348,1.3482,1.3502,1.3506,1.3522,1.3522,1.3545,1.355,1.355,1.3571,1.3569,1.3593,1.3592,1.363,1.3624,1.3626,1.3626,1.3652,1.3651,1.3734,1.3746,1.3668,1.3669,1.3669,0,1.3487,1.3505,1.3511,1.3521,1.3525,1.3542,1.3552,1.3546,1.3557,1.3569,1.3585,1.3604,1.3619,1.3653,1.3657,1.3675,1.3672,1.37,1.3675,1.3677,1.3675,1.3675,1.3678,1.3705,1.3706,1.3707,1.3707,0,1.3549,1.3546,1.356,1.3574,1.3586,1.3597,1.3607,1.3616,1.3611,1.3625,1.3645,1.3657,1.3681,1.3701,1.3719,1.3725,1.3717,1.3715,1.3722,1.3726,1.3727,1.373,1.3642,1.3714,1.3713,1.3713,1.3712,1.3712,1.3595,1.3611,1.3618,1.3635,1.3641,1.3651,1.3667,1.3668,1.3684,1.3702,1.3698,1.3721,1.3732,1.3755,1.3763,1.3783,1.3774,1.3783,1.3786,1.379,1.3794,1.3722,1.3786,1.3786,1.3786,1.3786,1.3785,0,1.3659,1.3662,1.3677,1.3691,1.3705,1.3693,1.3704,1.3717,1.3737,1.3747,1.3762,1.3787,1.3807,1.3812,1.3832,1.3847,1.3844,1.3853,1.3853,1.3855,1.38,1.3793,1.3855,1.3855,1.3855,1.3855,1.3855,1.3855,1.3693,1.372,1.3718,1.375,1.3753,1.3775,1.3783,1.3793,1.38,1.3828,1.3844,1.3846,1.3856,1.3876,1.3895,1.3896,1.3905,1.3916,1.3916,1.3865,1.3858,1.3852,1.3845,1.3918,1.3918,1.397,1.397,1.3971]},{"header":{"parameterUnit":"m.s-1","parameterCategory":1,"la1":30.2991,"la2":30.254,"lo1":-89.0895,"lo2":-89.0444,"dy":0.0017,"dx":0.0017,"nx":28,"ny":28,"refTime":"2025-03-10T21:00:00:Z","depth":0,"parameterNumber":3,"parameterNumberName":"V-component_of_WINDS"},"data":[0,0,0,0,0,0,0,0,0,0,0,0,0,0,0,0,0,0,0,0,0,0,0,0,0,0,0,0,0,0,0,0,0,0,0,0,0,0,0,0,0,0,0,0,0,0,0,0,0,0,0,0,0,0,0,0,0,0,-5.9203,-5.9204,0,-5.9374,-5.9376,-5.9378,-5.9456,-5.9456,-5.9455,-5.9455,-5.9622,-5.9627,-5.9631,0,0,0,0,0,0,0,0,0,0,0,0,0,-5.8939,-5.8943,-5.9202,-5.9205,-5.9207,-5.9374,-5.9376,-5.9378,-5.9456,-5.9455,-5.9455,-5.9455,-5.9621,-5.9626,-5.9632,0,0,0,0,0,0,0,0,0,0,0,0,0,-5.9076,-5.8945,-5.9202,-5.9266,-5.9273,-5.9373,-5.9376,-5.9379,-5.9456,-5.9455,-5.9455,-5.9455,-5.9619,-5.9625,-5.9632,-5.9679,0,0,-5.9653,-5.9656,0,0,0,0,0,0,0,0,-5.9068,-5.9085,-5.9254,-5.9261,-5.927,-5.9393,-5.9344,-5.9479,-5.9456,-5.9386,-5.9455,-5.9455,-5.9546,-5.9558,-5.9591,-5.9687,-5.9694,-5.9654,-5.9658,-5.9661,-5.9663,0,0,0,0,0,0,0,-5.9058,-5.9078,-5.927,-5.9256,-5.9266,-5.9285,-5.9304,-5.937,-5.9465,-5.9392,-5.9398,-5.9418,-5.955,-5.9584,-5.9595,-5.9697,-5.9654,-5.966,-5.9664,-5.9667,-5.9846,-5.9846,0,0,0,0,0,0,-5.9039,-5.907,-5.9265,-5.9275,-5.9167,-5.929,-5.9311,-5.9354,-5.9464,-5.9481,-5.9418,-5.9421,-5.9572,-5.9587,-5.9601,-5.9667,-5.9661,-5.9667,-5.9671,-5.9845,-5.9846,-5.9846,0,0,0,0,0,0,-5.9033,-5.9056,-5.9258,-5.9175,-5.9202,-5.9294,-5.9342,-5.9357,-5.9392,-5.9484,-5.9501,-5.9436,-5.9573,-5.9592,-5.9661,-5.9674,-5.967,-5.9677,-5.9844,-5.9845,-5.9846,-5.9797,0,0,0,0,0,0,-5.9025,-5.9053,-5.9072,-5.9174,-5.9206,-5.9315,-5.9343,-5.9361,-5.9404,-5.941,-5.9505,-5.952,-5.9574,-5.9651,-5.9668,-5.9683,-5.9682,-5.9843,-5.9845,-5.9846,-5.9798,-5.9796,-5.9794,0,0,0,0,0,-5.9016,-5.9048,-5.9073,-5.9096,-5.9232,-5.9316,-5.9334,-5.9397,-5.9405,-5.9425,-5.9485,-5.9517,-5.967,-5.9657,-5.9677,-5.9695,-5.9843,-5.9844,-5.9846,-5.9798,-5.9796,-5.9795,0,0,0,0,0,0,-5.894,-5.9063,-5.9091,-5.9158,-5.9227,-5.9329,-5.9355,-5.9392,-5.9457,-5.9459,-5.9533,-5.9553,-5.9617,-5.9663,-5.9646,-5.9749,-5.976,-5.9765,-5.9717,-5.9715,-5.9714,-5.9701,-5.9688,0,0,0,0,0,-5.8933,-5.8993,-5.9095,-5.9144,-5.9178,-5.9261,-5.9299,-5.9344,-5.9416,-5.9444,-5.9509,-5.9577,-5.9641,-5.968,-5.9744,-5.9805,-5.9829,-5.9828,-5.9826,-5.9825,-5.9828,-5.9869,-5.987,-5.9851,-5.9851,-5.9851,0,0,-5.8915,-5.8989,-5.9021,-5.9131,-5.919,-5.925,-5.9284,-5.9344,-5.939,-5.9452,-5.9524,-5.9574,-5.9655,-5.9722,-5.9754,-5.9762,-5.9839,-5.9826,-5.9824,-5.9829,-5.987,-5.9872,-5.9873,-5.9852,-5.9852,-5.9852,0,0,-5.8914,-5.8976,-5.9026,-5.9086,-5.9175,-5.9232,-5.9244,-5.9342,-5.938,-5.9454,-5.9504,-5.9558,-5.9664,-5.9722,-5.9764,-5.9793,-5.9826,-5.9811,-5.9802,-5.9841,-5.9842,-5.9844,-5.9856,-5.986,-5.9815,-5.9814,-5.9814,0,-5.888,-5.8974,-5.9046,-5.9107,-5.9155,-5.922,-5.9272,-5.9325,-5.9429,-5.946,-5.9468,-5.9609,-5.9667,-5.975,-5.9758,-5.979,-5.9807,-5.98,-5.9837,-5.9839,-5.9842,-5.9855,-5.9859,-5.9812,-5.9813,-5.9813,-5.9813,0,-5.893,-5.8995,-5.9024,-5.9129,-5.9181,-5.9235,-5.9316,-5.9359,-5.94,-5.9456,-5.9532,-5.9605,-5.9687,-5.971,-5.9748,-5.98,-5.9803,-5.9823,-5.9835,-5.984,-5.9854,-5.9859,-5.9809,-5.981,-5.9811,-5.9811,0,0,-5.8881,-5.9031,-5.9041,-5.9092,-5.9199,-5.925,-5.9309,-5.9394,-5.943,-5.9501,-5.9554,-5.9647,-5.9668,-5.9717,-5.9763,-5.9796,-5.9818,-5.9813,-5.9816,-5.9813,-5.9884,-5.9869,-5.9873,-5.9842,-5.9843,-5.9844,-5.9878,0,-5.8897,-5.901,-5.9079,-5.9163,-5.9226,-5.9292,-5.9345,-5.9416,-5.947,-5.9531,-5.959,-5.9656,-5.9678,-5.9708,-5.9745,-5.9808,-5.9834,-5.9806,-5.9891,-5.9893,-5.987,-5.988,-5.9863,-5.9892,-5.9883,-5.9884,-5.9885,0,-5.8928,-5.9004,-5.9095,-5.9202,-5.923,-5.9276,-5.9362,-5.9419,-5.9502,-5.954,-5.9598,-5.9646,-5.9712,-5.972,-5.9814,-5.9794,-5.9833,-5.987,-5.9873,-5.9883,-5.9889,-5.9892,-5.9902,-5.9907,-5.9894,-5.9893,-5.9892,0,-5.8887,-5.9011,-5.9084,-5.9125,-5.9249,-5.9281,-5.9334,-5.9417,-5.9465,-5.954,-5.9572,-5.9651,-5.9695,-5.9755,-5.9824,-5.9823,-5.9911,-5.9924,-5.9945,-5.9943,-5.9959,-5.9957,-5.9977,-5.9983,-5.9983,-5.9983,-5.9983,0,-5.8897,-5.895,-5.9068,-5.9112,-5.9176,-5.9256,-5.9317,-5.9375,-5.945,-5.9507,-5.9567,-5.9619,-5.9706,-5.9769,-5.9822,-5.9893,-5.9912,-5.9944,-5.9958,-5.9939,-5.9935,-5.9965,-5.9966,-5.9984,-5.9984,-5.9984,-5.9983,0,-5.886,-5.8941,-5.9025,-5.9139,-5.9169,-5.9211,-5.9308,-5.9354,-5.9414,-5.9486,-5.9507,-5.9601,-5.9679,-5.9754,-5.9856,-5.9893,-5.9964,-5.9981,-5.9937,-5.9944,-5.9962,-5.996,-6.0002,-6.0013,-6.001,-6.001,-6.001,0,-5.8861,-5.8905,-5.9026,-5.9071,-5.9124,-5.9194,-5.9246,-5.9327,-5.9378,-5.9481,-5.9514,-5.9598,-5.9669,-5.979,-5.9866,-5.9946,-5.9966,-5.9976,-5.9978,-5.996,-5.9969,-5.9966,-5.9972,-5.9973,-5.9973,-5.9973,-5.9973,0,-5.8855,-5.8895,-5.8968,-5.9058,-5.9119,-5.9191,-5.9266,-5.9299,-5.9395,-5.9449,-5.9532,-5.9588,-5.9697,-5.9779,-5.9869,-5.9922,-5.9964,-5.9972,-5.9982,-5.9963,-5.9936,-5.9953,-5.9933,-5.997,-5.997,-5.997,-5.9971,-5.9971,-5.8839,-5.8883,-5.8977,-5.9058,-5.9125,-5.9195,-5.9246,-5.9316,-5.9387,-5.9485,-5.9529,-5.9613,-5.9699,-5.9826,-5.9879,-5.9946,-5.9956,-5.9968,-5.9972,-5.9974,-5.9971,-5.9926,-5.9962,-5.9962,-5.9962,-5.9963,-5.9963,0,-5.8838,-5.8903,-5.8978,-5.9084,-5.9149,-5.9187,-5.9274,-5.9324,-5.9399,-5.9478,-5.9549,-5.9646,-5.9728,-5.9814,-5.9901,-5.9938,-5.9959,-5.9958,-5.9956,-5.9968,-5.9956,-5.9941,-5.9939,-5.9939,-5.9939,-5.9939,-5.9939,-5.9939,-5.8845,-5.8924,-5.8976,-5.9089,-5.9154,-5.924,-5.9287,-5.9353,-5.9417,-5.9525,-5.9595,-5.9652,-5.9734,-5.9829,-5.9906,-5.9929,-5.9959,-5.9952,-5.998,-5.9967,-5.9968,-5.997,-5.9955,-5.9957,-5.9958,-5.9987,-5.9988,-5.9988]}]]